DEMLR EDLW-EDDK

Flight info

Callsign DEMLR
Flight time 0h 27m
Altitude
Route
Aircraft P28A

Departure

Time 2026-04-20 18:31
Airport Dortmund Airport (EDLW)

Arrival

Time 2026-04-20 18:58
Airport Cologne Bonn Airport (EDDK)
Time Latitude Longitude Altitude Speed Heading
2026-04-20 18:22 51.51204 7.60449 445 ft 0 kts 12°
2026-04-20 18:22 51.51207 7.60449 445 ft 1 kts 359°
2026-04-20 18:22 51.51214 7.60426 445 ft 3 kts 283°
2026-04-20 18:22 51.51219 7.60393 445 ft 1 kts 285°
2026-04-20 18:23 51.51210 7.60360 445 ft 3 kts 237°
2026-04-20 18:23 51.51194 7.60315 445 ft 5 kts 238°
2026-04-20 18:23 51.51178 7.60279 445 ft 3 kts 230°
2026-04-20 18:23 51.51160 7.60246 445 ft 5 kts 232°
2026-04-20 18:24 51.51143 7.60183 445 ft 7 kts 291°
2026-04-20 18:24 51.51183 7.60159 445 ft 4 kts 17°
2026-04-20 18:24 51.51207 7.60206 445 ft 8 kts 60°
2026-04-20 18:24 51.51244 7.60311 438 ft 12 kts 61°
2026-04-20 18:25 51.51288 7.60430 433 ft 12 kts 60°
2026-04-20 18:25 51.51329 7.60545 428 ft 11 kts 59°
2026-04-20 18:25 51.51369 7.60656 423 ft 11 kts 61°
2026-04-20 18:25 51.51403 7.60750 422 ft 7 kts 60°
2026-04-20 18:26 51.51427 7.60820 422 ft 7 kts 62°
2026-04-20 18:26 51.51452 7.60890 422 ft 5 kts 61°
2026-04-20 18:26 51.51479 7.60967 422 ft 8 kts 61°
2026-04-20 18:26 51.51506 7.61041 422 ft 7 kts 58°
2026-04-20 18:27 51.51551 7.61050 422 ft 7 kts 344°
2026-04-20 18:27 51.51572 7.60994 422 ft 7 kts 270°
2026-04-20 18:27 51.51560 7.60907 422 ft 8 kts 255°
2026-04-20 18:27 51.51542 7.60799 422 ft 10 kts 255°
2026-04-20 18:28 51.51529 7.60726 422 ft 4 kts 256°
2026-04-20 18:28 51.51526 7.60694 422 ft 1 kts 267°
2026-04-20 18:28 51.51530 7.60671 422 ft 2 kts 298°
2026-04-20 18:28 51.51561 7.60621 422 ft 10 kts 333°
2026-04-20 18:29 51.51641 7.60667 422 ft 18 kts 60°
2026-04-20 18:29 51.51815 7.61152 444 ft 72 kts 57°
2026-04-20 18:29 51.52076 7.61937 568 ft 81 kts 62°
2026-04-20 18:29 51.52334 7.62664 685 ft 72 kts 59°
2026-04-20 18:30 51.52492 7.63429 750 ft 74 kts 82°
2026-04-20 18:30 51.52362 7.64225 803 ft 78 kts 116°
2026-04-20 18:30 51.51984 7.64864 885 ft 77 kts 140°
2026-04-20 18:30 51.51509 7.65309 979 ft 87 kts 144°
2026-04-20 18:31 51.50954 7.65869 1124 ft 99 kts 143°
2026-04-20 18:31 51.50372 7.66557 1260 ft 103 kts 138°
2026-04-20 18:31 51.49822 7.67262 1345 ft 103 kts 138°
2026-04-20 18:31 51.49266 7.68006 1412 ft 105 kts 135°
2026-04-20 18:32 51.48712 7.68787 1488 ft 105 kts 135°
2026-04-20 18:32 51.48140 7.69539 1523 ft 107 kts 139°
2026-04-20 18:32 51.47533 7.70294 1565 ft 108 kts 138°
2026-04-20 18:32 51.46949 7.71022 1664 ft 105 kts 139°
2026-04-20 18:33 51.46351 7.71724 1708 ft 108 kts 141°
2026-04-20 18:33 51.45739 7.72398 1793 ft 107 kts 143°
2026-04-20 18:33 51.45106 7.73039 1852 ft 107 kts 144°
2026-04-20 18:33 51.44456 7.73687 1843 ft 111 kts 144°
2026-04-20 18:34 51.43764 7.74309 1814 ft 116 kts 146°
2026-04-20 18:34 51.43076 7.74961 1867 ft 112 kts 146°
2026-04-20 18:34 51.42405 7.75590 1856 ft 115 kts 146°
2026-04-20 18:34 51.41607 7.75777 1822 ft 120 kts 193°
2026-04-20 18:35 51.40922 7.75061 1852 ft 116 kts 222°
2026-04-20 18:35 51.40327 7.74237 1914 ft 112 kts 221°
2026-04-20 18:35 51.39749 7.73382 1928 ft 114 kts 224°
2026-04-20 18:35 51.39163 7.72560 1984 ft 112 kts 223°
2026-04-20 18:36 51.38567 7.71718 1959 ft 116 kts 223°
2026-04-20 18:36 51.37965 7.70859 1976 ft 115 kts 223°
2026-04-20 18:36 51.37368 7.70023 1991 ft 115 kts 223°
2026-04-20 18:36 51.36766 7.69175 2021 ft 114 kts 217°
2026-04-20 18:37 51.36046 7.68636 2070 ft 112 kts 205°
2026-04-20 18:37 51.35326 7.68142 2067 ft 115 kts 203°
2026-04-20 18:37 51.34599 7.67657 2153 ft 110 kts 202°
2026-04-20 18:37 51.33894 7.67198 2214 ft 110 kts 202°
2026-04-20 18:38 51.33214 7.66653 2264 ft 111 kts 211°
2026-04-20 18:38 51.32555 7.66042 2341 ft 109 kts 211°
2026-04-20 18:38 51.31902 7.65433 2412 ft 108 kts 211°
2026-04-20 18:38 51.31250 7.64826 2466 ft 109 kts 211°
2026-04-20 18:39 51.30587 7.64212 2539 ft 108 kts 211°
2026-04-20 18:39 51.29937 7.63611 2607 ft 108 kts 211°
2026-04-20 18:39 51.29279 7.63005 2667 ft 109 kts 211°
2026-04-20 18:39 51.28623 7.62404 2735 ft 109 kts 211°
2026-04-20 18:40 51.27959 7.61797 2787 ft 110 kts 211°
2026-04-20 18:40 51.27288 7.61184 2802 ft 113 kts 211°
2026-04-20 18:40 51.26614 7.60574 2861 ft 111 kts 211°
2026-04-20 18:40 51.25936 7.59959 2893 ft 113 kts 211°
2026-04-20 18:41 51.25258 7.59346 2939 ft 112 kts 211°
2026-04-20 18:41 51.24570 7.58726 2980 ft 112 kts 211°
2026-04-20 18:41 51.23885 7.58111 3019 ft 113 kts 211°
2026-04-20 18:41 51.23205 7.57501 3058 ft 113 kts 211°
2026-04-20 18:42 51.22530 7.56898 3095 ft 113 kts 211°
2026-04-20 18:42 51.21850 7.56292 3132 ft 113 kts 211°
2026-04-20 18:42 51.21179 7.55696 3168 ft 113 kts 211°
2026-04-20 18:42 51.20519 7.55110 3204 ft 113 kts 211°
2026-04-20 18:43 51.19867 7.54403 3223 ft 114 kts 223°
2026-04-20 18:43 51.19262 7.53603 3281 ft 111 kts 223°
2026-04-20 18:43 51.18668 7.52811 3302 ft 113 kts 223°
2026-04-20 18:43 51.18063 7.52010 3346 ft 112 kts 223°
2026-04-20 18:44 51.17459 7.51214 3374 ft 112 kts 223°
2026-04-20 18:44 51.16891 7.50467 3408 ft 112 kts 223°
2026-04-20 18:44 51.16305 7.49701 3438 ft 112 kts 223°
2026-04-20 18:44 51.15702 7.48917 3470 ft 112 kts 223°
2026-04-20 18:45 51.15103 7.48141 3501 ft 112 kts 223°
2026-04-20 18:45 51.14496 7.47359 3531 ft 112 kts 223°
2026-04-20 18:45 51.13885 7.46575 3513 ft 116 kts 223°
2026-04-20 18:45 51.13256 7.45765 3497 ft 117 kts 223°
2026-04-20 18:46 51.12616 7.44944 3488 ft 116 kts 223°
2026-04-20 18:46 51.11983 7.44135 3464 ft 117 kts 223°
2026-04-20 18:46 51.11368 7.43352 3463 ft 116 kts 223°
2026-04-20 18:46 51.10776 7.42602 3472 ft 115 kts 223°
2026-04-20 18:47 51.10149 7.41809 3461 ft 115 kts 223°
2026-04-20 18:47 51.09523 7.41021 3462 ft 114 kts 223°
2026-04-20 18:47 51.08889 7.40224 3455 ft 114 kts 223°
2026-04-20 18:47 51.08308 7.39496 3453 ft 114 kts 223°
2026-04-20 18:48 51.07772 7.38825 3447 ft 114 kts 223°
2026-04-20 18:48 51.07107 7.37994 3443 ft 114 kts 223°
2026-04-20 18:48 51.06487 7.37221 3437 ft 114 kts 223°
2026-04-20 18:48 51.05896 7.36486 3432 ft 114 kts 223°
2026-04-20 18:49 51.05286 7.35727 3426 ft 114 kts 223°
2026-04-20 18:49 51.04695 7.34992 3377 ft 117 kts 223°
2026-04-20 18:49 51.04041 7.34153 2944 ft 129 kts 225°
2026-04-20 18:49 51.03372 7.33285 2320 ft 126 kts 223°
2026-04-20 18:50 51.02778 7.32527 2101 ft 115 kts 222°
2026-04-20 18:50 51.02237 7.31827 1938 ft 112 kts 223°
2026-04-20 18:50 51.01667 7.31082 1820 ft 106 kts 223°
2026-04-20 18:50 51.01131 7.30386 1828 ft 93 kts 221°
2026-04-20 18:51 51.00617 7.29709 1798 ft 99 kts 222°
2026-04-20 18:51 51.00119 7.28907 1827 ft 98 kts 234°
2026-04-20 18:51 50.99694 7.28077 1829 ft 100 kts 233°
2026-04-20 18:51 50.99256 7.27242 1828 ft 100 kts 233°
2026-04-20 18:52 50.98808 7.26385 1829 ft 100 kts 233°
2026-04-20 18:52 50.98528 7.25853 1836 ft 100 kts 233°
2026-04-20 18:52 50.98077 7.24993 1838 ft 100 kts 233°
2026-04-20 18:52 50.97646 7.24125 1838 ft 100 kts 238°
2026-04-20 18:53 50.97247 7.23252 1838 ft 99 kts 238°
2026-04-20 18:53 50.96843 7.22363 1834 ft 100 kts 237°
2026-04-20 18:53 50.96435 7.21469 1839 ft 100 kts 237°
2026-04-20 18:53 50.96041 7.20571 1832 ft 100 kts 246°
2026-04-20 18:54 50.95671 7.19653 1847 ft 98 kts 244°
2026-04-20 18:54 50.95182 7.18822 1734 ft 110 kts 212°
2026-04-20 18:54 50.94449 7.18501 1658 ft 108 kts 189°
2026-04-20 18:54 50.93733 7.18300 1601 ft 103 kts 194°
2026-04-20 18:55 50.93022 7.18148 1536 ft 100 kts 188°
2026-04-20 18:55 50.92353 7.17929 1476 ft 99 kts 199°
2026-04-20 18:55 50.91689 7.17741 1420 ft 97 kts 186°
2026-04-20 18:55 50.91028 7.17617 1397 ft 98 kts 187°
2026-04-20 18:56 50.90335 7.17499 1361 ft 101 kts 185°
2026-04-20 18:56 50.89652 7.17418 1253 ft 106 kts 188°
2026-04-20 18:56 50.88931 7.17213 1067 ft 109 kts 193°
2026-04-20 18:56 50.88204 7.16930 873 ft 106 kts 197°
2026-04-20 18:57 50.87541 7.16457 615 ft 102 kts 215°
2026-04-20 18:57 50.87058 7.15733 415 ft 90 kts 236°
2026-04-20 18:57 50.86783 7.14922 286 ft 76 kts 252°
2026-04-20 18:57 50.86586 7.14267 261 ft 52 kts 243°
2026-04-20 18:58 50.86480 7.13907 254 ft 31 kts 239°
2026-04-20 18:58 50.86401 7.13659 252 ft 19 kts 244°
2026-04-20 18:58 50.86386 7.13476 247 ft 15 kts 285°
2026-04-20 18:58 50.86440 7.13375 243 ft 10 kts 317°
2026-04-20 18:59 50.86485 7.13309 241 ft 7 kts 317°
2026-04-20 18:59 50.86516 7.13263 240 ft 6 kts 317°
2026-04-20 18:59 50.86563 7.13195 237 ft 11 kts 317°
2026-04-20 18:59 50.86610 7.13128 235 ft 7 kts 316°
2026-04-20 19:00 50.86654 7.13064 234 ft 20 kts 314°
2026-04-20 19:00 50.86809 7.12838 231 ft 29 kts 320°
2026-04-20 19:00 50.86934 7.12659 230 ft 21 kts 322°
2026-04-20 19:00 50.87006 7.12556 229 ft 9 kts 334°
2026-04-20 19:01 50.87050 7.12570 229 ft 4 kts 42°
2026-04-20 19:01 50.87066 7.12598 229 ft 3 kts 45°
2026-04-20 19:01 50.87093 7.12638 229 ft 5 kts 44°
2026-04-20 19:01 50.87107 7.12620 229 ft 2 kts 276°
2026-04-20 19:02 50.87114 7.12593 229 ft 2 kts 349°
2026-04-20 19:02 50.87118 7.12606 229 ft 0 kts 102°
2026-04-20 19:02 50.87118 7.12607 229 ft 0 kts 107°